Location: Contre
(49.7477°N, 2.0963°E)
Time: 09:29:25
(UTC+00:00)

ISS - Pass Details

Date: 07 March 2024
Orbit: 413 x 419 km, 51.6° (Epoch: 13 April)

Event Time Altitude Azimuth Distance (km) Brightness Sun altitude
Exits shadow 04:23:14 22° 169° (SSE) 974 -2.0 -19.8°
Drops below altitude 10° 04:24:51 10° 149° (SSE) 1,512 -0.8 -19.5°
Sets 04:27:04 0° 139° (SE) 2,373 0.4 -19.2°
